Time,TemperatureF,DewpointF,PressureIn,WindDirection,WindDirectionDegrees,WindSpeedMPH,WindSpeedGustMPH,Humidity,HourlyPrecipIn,Conditions,Clouds,dailyrainin,SoftwareType,DateUTC
2013-03-28 00:00:00,38.7,5.0,30.03,WNW,292,2.7,3.6,24,0.00,,---,0.00,VWS V14.01,2013-03-28 04:00:00,
2013-03-28 00:01:00,38.5,4.8,30.03,WNW,292,2.9,3.8,24,0.00,,---,0.00,VWS V14.01,2013-03-28 04:01:00,
2013-03-28 00:02:00,38.5,4.8,30.03,NW,315,2.5,3.8,24,0.00,,---,0.00,VWS V14.01,2013-03-28 04:02:00,
2013-03-28 00:07:00,38.3,4.7,30.00,WNW,292,2.2,3.8,24,0.00,,---,0.00,VWS V14.01,2013-03-28 04:07:00,
2013-03-28 00:10:00,38.1,4.5,30.00,WNW,292,2.5,3.8,24,0.00,,---,0.00,VWS V14.01,2013-03-28 04:10:00,
2013-03-28 00:12:00,38.1,4.5,30.00,NNE,22,2.5,3.1,24,0.00,,---,0.00,VWS V14.01,2013-03-28 04:12:00,
2013-03-28 00:17:00,37.9,4.4,30.00,WNW,292,2.0,4.0,24,0.00,,---,0.00,VWS V14.01,2013-03-28 04:17:00,
2013-03-28 00:20:00,37.9,4.4,30.00,WNW,292,0.0,4.0,24,0.00,,---,0.00,VWS V14.01,2013-03-28 04:20:00,
2013-03-28 00:22:00,37.8,4.2,30.00,WNW,292,2.0,3.1,24,0.00,,---,0.00,VWS V14.01,2013-03-28 04:22:00,
2013-03-28 00:27:00,37.6,4.1,30.00,NW,315,1.6,3.1,24,0.00,,---,0.00,VWS V14.01,2013-03-28 04:27:00,
2013-03-28 00:30:00,37.6,4.1,30.00,WNW,292,2.5,3.1,24,0.00,,---,0.00,VWS V14.01,2013-03-28 04:30:00,
2013-03-28 00:32:00,37.4,3.9,30.00,WSW,248,2.0,3.6,24,0.00,,---,0.00,VWS V14.01,2013-03-28 04:32:00,
2013-03-28 00:37:00,37.4,3.9,30.00,West,270,1.6,3.8,24,0.00,,---,0.00,VWS V14.01,2013-03-28 04:37:00,
2013-03-28 00:40:00,37.4,3.9,30.00,WNW,292,2.2,3.8,24,0.00,,---,0.00,VWS V14.01,2013-03-28 04:40:00,
2013-03-28 00:42:00,37.2,3.8,30.00,WNW,292,1.3,2.9,24,0.00,,---,0.00,VWS V14.01,2013-03-28 04:42:00,
2013-03-28 00:47:00,37.0,6.2,30.00,WNW,292,2.0,2.9,27,0.00,,---,0.00,VWS V14.01,2013-03-28 04:47:00,
2013-03-28 00:50:00,37.0,6.2,30.00,WNW,292,2.7,2.9,27,0.00,,---,0.00,VWS V14.01,2013-03-28 04:50:00,
2013-03-28 00:52:00,37.0,6.2,30.00,West,270,1.6,3.1,27,0.00,,---,0.00,VWS V14.01,2013-03-28 04:52:00,
2013-03-28 00:57:00,37.0,6.2,30.00,WNW,292,1.1,3.1,27,0.00,,---,0.00,VWS V14.01,2013-03-28 04:57:00,
2013-03-28 01:00:00,37.2,6.3,30.00,West,270,4.0,4.0,27,0.00,,---,0.00,VWS V14.01,2013-03-28 05:00:00,
2013-03-28 01:02:00,37.0,6.2,30.00,NW,315,1.3,4.0,27,0.00,,---,0.00,VWS V14.01,2013-03-28 05:02:00,
2013-03-28 01:07:00,37.0,6.2,30.00,West,270,1.3,4.0,27,0.00,,---,0.00,VWS V14.01,2013-03-28 05:07:00,
2013-03-28 01:10:00,36.9,6.0,30.00,West,270,1.6,4.0,27,0.00,,---,0.00,VWS V14.01,2013-03-28 05:10:00,
2013-03-28 01:13:00,36.9,6.0,30.00,West,270,2.9,2.9,27,0.00,,---,0.00,VWS V14.01,2013-03-28 05:13:00,
2013-03-28 01:18:00,36.7,5.9,30.00,WNW,292,2.7,3.6,27,0.00,,---,0.00,VWS V14.01,2013-03-28 05:18:00,
2013-03-28 01:20:00,36.7,5.9,30.00,WNW,292,2.7,3.6,27,0.00,,---,0.00,VWS V14.01,2013-03-28 05:20:00,
2013-03-28 01:23:00,36.9,6.0,30.00,West,270,2.2,3.1,27,0.00,,---,0.00,VWS V14.01,2013-03-28 05:23:00,
2013-03-28 01:28:00,36.7,5.9,30.00,WNW,292,2.2,3.1,27,0.00,,---,0.00,VWS V14.01,2013-03-28 05:28:00,
2013-03-28 01:30:00,36.7,5.9,30.00,WNW,292,2.2,3.1,27,0.00,,---,0.00,VWS V14.01,2013-03-28 05:30:00,
2013-03-28 01:33:00,36.7,5.9,30.00,WSW,248,2.0,4.7,27,0.00,,---,0.00,VWS V14.01,2013-03-28 05:33:00,
2013-03-28 01:38:00,36.7,5.9,30.00,WNW,292,2.0,4.7,27,0.00,,---,0.00,VWS V14.01,2013-03-28 05:38:00,
2013-03-28 01:40:00,36.7,5.9,30.00,WNW,292,2.0,4.7,27,0.00,,---,0.00,VWS V14.01,2013-03-28 05:40:00,
2013-03-28 01:43:00,36.7,5.9,30.00,WNW,292,2.0,4.0,27,0.00,,---,0.00,VWS V14.01,2013-03-28 05:43:00,
2013-03-28 01:48:00,36.5,5.7,30.00,West,270,2.0,2.0,27,0.00,,---,0.00,VWS V14.01,2013-03-28 05:48:00,
2013-03-28 01:50:00,36.5,5.7,30.00,West,270,2.0,4.0,27,0.00,,---,0.00,VWS V14.01,2013-03-28 05:50:00,
2013-03-28 01:53:00,36.3,5.6,30.00,WNW,292,2.7,2.7,27,0.00,,---,0.00,VWS V14.01,2013-03-28 05:53:00,
2013-03-28 01:58:00,36.1,5.4,30.00,WNW,292,2.0,2.0,27,0.00,,---,0.00,VWS V14.01,2013-03-28 05:58:00,
2013-03-28 02:00:00,36.3,5.6,30.00,WNW,292,1.3,2.9,27,0.00,,---,0.00,VWS V14.01,2013-03-28 06:00:00,
2013-03-28 02:03:00,36.1,5.4,30.00,WNW,292,1.6,2.5,27,0.00,,---,0.00,VWS V14.01,2013-03-28 06:03:00,
2013-03-28 02:08:00,36.0,5.2,30.00,WNW,292,0.0,0.0,27,0.00,,---,0.00,VWS V14.01,2013-03-28 06:08:00,
2013-03-28 02:10:00,36.0,5.2,30.00,WNW,292,0.0,2.9,27,0.00,,---,0.00,VWS V14.01,2013-03-28 06:10:00,
2013-03-28 02:13:00,35.8,5.1,30.00,WNW,292,1.1,2.0,27,0.00,,---,0.00,VWS V14.01,2013-03-28 06:13:00,
2013-03-28 02:18:00,35.8,5.1,30.00,West,270,1.3,1.6,27,0.00,,---,0.00,VWS V14.01,2013-03-28 06:18:00,
2013-03-28 02:20:00,35.8,5.1,30.00,West,270,1.6,3.6,27,0.00,,---,0.00,VWS V14.01,2013-03-28 06:20:00,
2013-03-28 02:24:00,35.6,4.9,30.00,WNW,292,3.4,3.4,27,0.00,,---,0.00,VWS V14.01,2013-03-28 06:24:00,
2013-03-28 02:29:00,35.4,4.8,30.00,WNW,292,1.3,2.0,27,0.00,,---,0.00,VWS V14.01,2013-03-28 06:29:00,
2013-03-28 02:30:00,35.4,4.8,30.00,WNW,292,2.0,3.4,27,0.00,,---,0.00,VWS V14.01,2013-03-28 06:30:00,
2013-03-28 02:34:00,35.4,4.8,29.97,West,270,3.1,4.0,27,0.00,,---,0.00,VWS V14.01,2013-03-28 06:34:00,
2013-03-28 02:39:00,35.4,4.8,29.97,NW,315,4.3,4.3,27,0.00,,---,0.00,VWS V14.01,2013-03-28 06:39:00,
2013-03-28 02:40:00,35.4,4.8,29.97,WNW,292,2.2,4.0,27,0.00,,---,0.00,VWS V14.01,2013-03-28 06:40:00,
2013-03-28 02:44:00,35.8,5.1,29.97,NW,315,4.9,4.9,27,0.00,,---,0.00,VWS V14.01,2013-03-28 06:44:00,
2013-03-28 02:49:00,36.0,5.2,29.97,NW,315,3.6,4.9,27,0.00,,---,0.00,VWS V14.01,2013-03-28 06:49:00,
2013-03-28 02:50:00,36.0,5.2,29.97,NW,315,3.1,5.8,27,0.00,,---,0.00,VWS V14.01,2013-03-28 06:50:00,
2013-03-28 02:54:00,36.1,5.4,29.97,WNW,292,3.8,6.0,27,0.00,,---,0.00,VWS V14.01,2013-03-28 06:54:00,
2013-03-28 02:59:00,36.1,5.4,29.97,WNW,292,3.4,4.9,27,0.00,,---,0.00,VWS V14.01,2013-03-28 06:59:00,
2013-03-28 03:00:00,36.1,5.4,29.97,NW,315,2.9,6.0,27,0.00,,---,0.00,VWS V14.01,2013-03-28 07:00:00,
2013-03-28 03:05:00,36.1,5.4,29.97,WNW,292,4.0,6.0,27,0.00,,---,0.00,VWS V14.01,2013-03-28 07:05:00,
2013-03-28 03:10:00,36.0,5.2,29.97,NNE,22,2.5,3.8,27,0.00,,---,0.00,VWS V14.01,2013-03-28 07:10:00,
2013-03-28 03:15:00,35.8,5.1,29.97,WNW,292,2.7,4.9,27,0.00,,---,0.00,VWS V14.01,2013-03-28 07:15:00,
2013-03-28 03:20:00,35.8,5.1,29.97,WNW,292,3.6,4.0,27,0.00,,---,0.00,VWS V14.01,2013-03-28 07:20:00,
2013-03-28 03:25:00,35.8,5.1,29.97,WNW,292,1.1,4.0,27,0.00,,---,0.00,VWS V14.01,2013-03-28 07:25:00,
2013-03-28 03:30:00,35.6,4.9,29.97,West,270,1.6,2.7,27,0.00,,---,0.00,VWS V14.01,2013-03-28 07:30:00,
2013-03-28 03:35:00,35.6,4.9,29.97,WNW,292,2.7,2.9,27,0.00,,---,0.00,VWS V14.01,2013-03-28 07:35:00,
2013-03-28 03:40:00,35.6,4.9,29.97,West,270,1.6,2.5,27,0.00,,---,0.00,VWS V14.01,2013-03-28 07:40:00,
2013-03-28 03:45:00,35.4,4.8,29.97,West,270,2.9,3.8,27,0.00,,---,0.00,VWS V14.01,2013-03-28 07:45:00,
2013-03-28 03:50:00,35.4,4.8,29.97,NW,315,2.9,3.8,27,0.00,,---,0.00,VWS V14.01,2013-03-28 07:50:00,
2013-03-28 03:55:00,35.2,4.6,29.97,NW,315,2.5,4.0,27,0.00,,---,0.00,VWS V14.01,2013-03-28 07:55:00,
2013-03-28 04:00:00,35.2,4.6,29.97,WNW,292,3.6,4.3,27,0.00,,---,0.00,VWS V14.01,2013-03-28 08:00:00,
2013-03-28 04:01:00,35.4,4.8,29.97,WNW,292,2.7,4.5,27,0.00,,---,0.00,VWS V14.01,2013-03-28 08:01:00,
2013-03-28 04:06:00,35.2,4.6,29.97,NW,315,2.0,4.5,27,0.00,,---,0.00,VWS V14.01,2013-03-28 08:06:00,
2013-03-28 04:10:00,35.2,4.6,29.97,West,270,2.7,4.5,27,0.00,,---,0.00,VWS V14.01,2013-03-28 08:10:00,
2013-03-28 04:11:00,35.2,4.6,29.97,West,270,2.7,3.6,27,0.00,,---,0.00,VWS V14.01,2013-03-28 08:11:00,
2013-03-28 04:16:00,35.1,4.5,29.97,WNW,292,0.9,3.6,27,0.00,,---,0.00,VWS V14.01,2013-03-28 08:16:00,
2013-03-28 04:20:00,35.1,4.5,29.97,WNW,292,2.5,3.6,27,0.00,,---,0.00,VWS V14.01,2013-03-28 08:20:00,
2013-03-28 04:21:00,35.1,4.5,29.97,West,270,2.9,3.1,27,0.00,,---,0.00,VWS V14.01,2013-03-28 08:21:00,
2013-03-28 04:26:00,35.1,4.5,29.97,NW,315,4.0,4.3,27,0.00,,---,0.00,VWS V14.01,2013-03-28 08:26:00,
2013-03-28 04:30:00,35.1,4.5,29.97,West,270,4.0,4.3,27,0.00,,---,0.00,VWS V14.01,2013-03-28 08:30:00,
2013-03-28 04:31:00,35.2,4.6,29.97,WNW,292,2.9,4.9,27,0.00,,---,0.00,VWS V14.01,2013-03-28 08:31:00,
2013-03-28 04:36:00,35.2,4.6,29.97,West,270,3.1,4.9,27,0.00,,---,0.00,VWS V14.01,2013-03-28 08:36:00,
2013-03-28 04:40:00,35.4,4.8,29.97,WNW,292,2.9,7.8,27,0.00,,---,0.00,VWS V14.01,2013-03-28 08:40:00,
2013-03-28 04:41:00,35.4,4.8,29.97,NW,315,2.7,4.9,27,0.00,,---,0.00,VWS V14.01,2013-03-28 08:41:00,
2013-03-28 04:46:00,35.4,4.8,29.97,West,270,1.6,4.9,27,0.00,,---,0.00,VWS V14.01,2013-03-28 08:46:00,
2013-03-28 04:50:00,35.4,4.8,29.97,West,270,2.7,5.4,27,0.00,,---,0.00,VWS V14.01,2013-03-28 08:50:00,
2013-03-28 04:51:00,35.4,4.8,29.97,SW,225,6.9,7.6,27,0.00,,---,0.00,VWS V14.01,2013-03-28 08:51:00,
2013-03-28 04:57:00,35.4,4.8,29.97,WNW,292,4.5,7.6,27,0.00,,---,0.00,VWS V14.01,2013-03-28 08:57:00,
2013-03-28 05:00:00,35.4,4.8,29.97,West,270,2.9,7.6,27,0.00,,---,0.00,VWS V14.01,2013-03-28 09:00:00,
2013-03-28 05:02:00,35.4,4.8,29.97,West,270,3.1,4.9,27,0.00,,---,0.00,VWS V14.01,2013-03-28 09:02:00,
2013-03-28 05:07:00,35.4,4.8,29.97,West,270,2.5,4.9,27,0.00,,---,0.00,VWS V14.01,2013-03-28 09:07:00,
2013-03-28 05:10:00,35.4,4.8,29.97,NW,315,4.3,4.9,27,0.00,,---,0.00,VWS V14.01,2013-03-28 09:10:00,
2013-03-28 05:12:00,35.4,4.8,29.97,WNW,292,4.3,5.8,27,0.00,,---,0.00,VWS V14.01,2013-03-28 09:12:00,
2013-03-28 05:17:00,35.4,4.8,29.97,WNW,292,2.5,5.8,27,0.00,,---,0.00,VWS V14.01,2013-03-28 09:17:00,
2013-03-28 05:20:00,35.2,4.6,29.97,West,270,3.1,5.8,27,0.00,,---,0.00,VWS V14.01,2013-03-28 09:20:00,
2013-03-28 05:22:00,35.2,4.6,29.97,WNW,292,2.9,3.4,27,0.00,,---,0.00,VWS V14.01,2013-03-28 09:22:00,
2013-03-28 05:27:00,35.1,4.5,29.97,WNW,292,1.6,3.8,27,0.00,,---,0.00,VWS V14.01,2013-03-28 09:27:00,
2013-03-28 05:30:00,35.1,4.5,29.97,NW,315,2.5,3.8,27,0.00,,---,0.00,VWS V14.01,2013-03-28 09:30:00,
2013-03-28 05:32:00,35.1,4.5,29.97,West,270,3.4,3.4,27,0.00,,---,0.00,VWS V14.01,2013-03-28 09:32:00,
2013-03-28 05:37:00,35.1,4.5,29.97,West,270,2.7,5.8,27,0.00,,---,0.00,VWS V14.01,2013-03-28 09:37:00,
2013-03-28 05:40:00,35.1,4.5,29.97,NW,315,3.1,5.8,27,0.00,,---,0.00,VWS V14.01,2013-03-28 09:40:00,
2013-03-28 05:42:00,35.2,4.6,29.97,West,270,2.5,4.3,27,0.00,,---,0.00,VWS V14.01,2013-03-28 09:42:00,
2013-03-28 05:47:00,35.1,4.5,29.97,WNW,292,2.2,4.3,27,0.00,,---,0.00,VWS V14.01,2013-03-28 09:47:00,
2013-03-28 05:50:00,35.1,4.5,29.97,WNW,292,2.0,4.3,27,0.00,,---,0.00,VWS V14.01,2013-03-28 09:50:00,
2013-03-28 05:52:00,34.9,4.3,29.97,WNW,292,2.5,2.9,27,0.00,,---,0.00,VWS V14.01,2013-03-28 09:52:00,
2013-03-28 05:57:00,34.9,4.3,29.97,NNW,338,1.6,4.9,27,0.00,,---,0.00,VWS V14.01,2013-03-28 09:57:00,
2013-03-28 06:00:00,34.9,4.3,29.97,WNW,292,4.3,4.9,27,0.00,,---,0.00,VWS V14.01,2013-03-28 10:00:00,
2013-03-28 06:02:00,34.9,4.3,29.97,West,270,2.9,4.5,27,0.00,,---,0.00,VWS V14.01,2013-03-28 10:02:00,
2013-03-28 06:07:00,34.9,4.3,29.97,WNW,292,4.0,4.5,27,0.00,,---,0.00,VWS V14.01,2013-03-28 10:07:00,
2013-03-28 06:10:00,34.9,4.3,29.97,NW,315,3.1,4.5,27,0.00,,---,0.00,VWS V14.01,2013-03-28 10:10:00,
2013-03-28 06:13:00,34.7,4.2,29.97,WNW,292,2.9,3.6,27,0.00,,---,0.00,VWS V14.01,2013-03-28 10:13:00,
2013-03-28 06:18:00,34.7,4.2,29.97,NW,315,1.6,3.8,27,0.00,,---,0.00,VWS V14.01,2013-03-28 10:18:00,
2013-03-28 06:20:00,34.7,4.2,29.97,NW,315,2.7,3.8,27,0.00,,---,0.00,VWS V14.01,2013-03-28 10:20:00,
2013-03-28 06:23:00,34.5,4.0,29.97,WNW,292,2.0,4.3,27,0.00,,---,0.00,VWS V14.01,2013-03-28 10:23:00,
2013-03-28 06:28:00,34.7,4.2,29.97,NW,315,2.2,7.2,27,0.00,,---,0.00,VWS V14.01,2013-03-28 10:28:00,
2013-03-28 06:30:00,34.7,4.2,29.97,NW,315,2.2,7.2,27,0.00,,---,0.00,VWS V14.01,2013-03-28 10:30:00,
2013-03-28 06:33:00,34.5,4.0,29.97,WNW,292,3.1,3.4,27,0.00,,---,0.00,VWS V14.01,2013-03-28 10:33:00,
2013-03-28 06:38:00,34.5,4.0,29.97,NW,315,2.9,4.3,27,0.00,,---,0.00,VWS V14.01,2013-03-28 10:38:00,
2013-03-28 06:40:00,34.5,4.0,29.97,NW,315,2.9,4.3,27,0.00,,---,0.00,VWS V14.01,2013-03-28 10:40:00,
2013-03-28 06:43:00,34.5,4.0,29.97,NW,315,2.5,4.3,27,0.00,,---,0.00,VWS V14.01,2013-03-28 10:43:00,
2013-03-28 06:48:00,34.3,6.1,30.00,WNW,292,2.0,4.3,30,0.00,,---,0.00,VWS V14.01,2013-03-28 10:48:00,
2013-03-28 06:50:00,34.3,6.1,30.00,WNW,292,2.0,4.3,30,0.00,,---,0.00,VWS V14.01,2013-03-28 10:50:00,
2013-03-28 06:53:00,34.2,6.0,30.00,WNW,292,2.7,2.7,30,0.00,,---,0.00,VWS V14.01,2013-03-28 10:53:00,
2013-03-28 06:58:00,34.0,5.8,30.00,WNW,292,2.7,2.9,30,0.00,,---,0.00,VWS V14.01,2013-03-28 10:58:00,
2013-03-28 07:00:00,34.0,5.8,30.00,WNW,292,2.7,2.9,30,0.00,,---,0.00,VWS V14.01,2013-03-28 11:00:00,
2013-03-28 07:03:00,34.0,5.8,30.00,WNW,292,1.1,2.9,30,0.00,,---,0.00,VWS V14.01,2013-03-28 11:03:00,
2013-03-28 07:09:00,34.0,5.8,30.00,NW,315,2.0,3.6,30,0.00,,---,0.00,VWS V14.01,2013-03-28 11:09:00,
2013-03-28 07:10:00,34.0,5.8,30.00,NW,315,3.1,3.1,30,0.00,,---,0.00,VWS V14.01,2013-03-28 11:10:00,
2013-03-28 07:14:00,34.0,5.8,30.00,NW,315,2.0,3.6,30,0.00,,---,0.00,VWS V14.01,2013-03-28 11:14:00,
2013-03-28 07:19:00,34.3,6.1,30.00,North,0,3.6,3.6,30,0.00,,---,0.00,VWS V14.01,2013-03-28 11:19:00,
2013-03-28 07:20:00,34.3,6.1,30.00,WNW,292,3.6,3.6,30,0.00,,---,0.00,VWS V14.01,2013-03-28 11:20:00,
2013-03-28 07:24:00,34.7,6.4,30.00,WNW,292,2.5,3.8,30,0.00,,---,0.00,VWS V14.01,2013-03-28 11:24:00,
2013-03-28 07:29:00,35.1,6.8,30.00,West,270,4.0,4.0,30,0.00,,---,0.00,VWS V14.01,2013-03-28 11:29:00,
2013-03-28 07:30:00,34.9,6.6,30.00,NNE,22,3.4,4.0,30,0.00,,---,0.00,VWS V14.01,2013-03-28 11:30:00,
2013-03-28 07:34:00,35.4,7.1,30.03,West,270,4.7,5.4,30,0.00,,---,0.00,VWS V14.01,2013-03-28 11:34:00,
2013-03-28 07:39:00,35.6,6.5,30.03,North,0,3.4,4.7,29,0.00,,---,0.00,VWS V14.01,2013-03-28 11:39:00,
2013-03-28 07:40:00,35.6,6.5,30.03,NW,315,3.4,5.6,29,0.00,,---,0.00,VWS V14.01,2013-03-28 11:40:00,
2013-03-28 07:44:00,36.0,6.8,30.03,NNW,338,5.4,5.6,29,0.00,,---,0.00,VWS V14.01,2013-03-28 11:44:00,
2013-03-28 07:49:00,36.3,5.6,30.00,WNW,292,3.6,3.6,27,0.00,,---,0.00,VWS V14.01,2013-03-28 11:49:00,
2013-03-28 07:50:00,36.3,5.6,30.00,WNW,292,3.4,6.0,27,0.00,,---,0.00,VWS V14.01,2013-03-28 11:50:00,
2013-03-28 07:54:00,36.7,5.9,30.00,NW,315,4.3,6.0,27,0.00,,---,0.00,VWS V14.01,2013-03-28 11:54:00,
2013-03-28 07:59:00,37.0,6.2,30.00,WNW,292,5.6,5.6,27,0.00,,---,0.00,VWS V14.01,2013-03-28 11:59:00,
2013-03-28 08:00:00,36.9,6.0,30.00,NW,315,3.8,6.3,27,0.00,,---,0.00,VWS V14.01,2013-03-28 12:00:00,
2013-03-28 08:04:00,37.2,6.3,30.03,NW,315,3.4,6.0,27,0.00,,---,0.00,VWS V14.01,2013-03-28 12:04:00,
2013-03-28 08:09:00,37.4,5.7,30.03,WNW,292,7.4,7.4,26,0.00,,---,0.00,VWS V14.01,2013-03-28 12:09:00,
2013-03-28 08:10:00,37.4,5.7,30.03,WNW,292,4.9,7.4,26,0.00,,---,0.00,VWS V14.01,2013-03-28 12:10:00,
2013-03-28 08:14:00,37.8,6.0,30.03,West,270,9.8,9.8,26,0.00,,---,0.00,VWS V14.01,2013-03-28 12:14:00,
2013-03-28 08:19:00,37.9,6.1,30.00,NW,315,3.8,7.8,26,0.00,,---,0.00,VWS V14.01,2013-03-28 12:19:00,
2013-03-28 08:20:00,37.9,6.1,30.00,NW,315,7.8,12.8,26,0.00,,---,0.00,VWS V14.01,2013-03-28 12:20:00,
2013-03-28 08:24:00,38.1,6.3,30.00,NW,315,6.3,9.8,26,0.00,,---,0.00,VWS V14.01,2013-03-28 12:24:00,
2013-03-28 08:29:00,38.5,6.6,30.00,NNW,338,13.0,13.0,26,0.00,,---,0.00,VWS V14.01,2013-03-28 12:29:00,
2013-03-28 08:30:00,38.5,6.6,30.00,NW,315,5.6,9.8,26,0.00,,---,0.00,VWS V14.01,2013-03-28 12:30:00,
2013-03-28 08:34:00,38.7,6.7,30.03,NNW,338,7.6,13.0,26,0.00,,---,0.00,VWS V14.01,2013-03-28 12:34:00,
2013-03-28 08:39:00,38.7,6.7,30.03,NW,315,8.7,10.3,26,0.00,,---,0.00,VWS V14.01,2013-03-28 12:39:00,
2013-03-28 08:40:00,38.7,6.7,30.03,NW,315,5.8,13.0,26,0.00,,---,0.00,VWS V14.01,2013-03-28 12:40:00,
2013-03-28 08:44:00,38.8,6.9,30.03,NNW,338,3.8,10.3,26,0.00,,---,0.00,VWS V14.01,2013-03-28 12:44:00,
2013-03-28 08:49:00,39.4,7.4,30.03,West,270,4.7,6.3,26,0.00,,---,0.00,VWS V14.01,2013-03-28 12:49:00,
2013-03-28 08:50:00,39.2,7.2,30.03,NW,315,3.4,10.3,26,0.00,,---,0.00,VWS V14.01,2013-03-28 12:50:00,
2013-03-28 08:54:00,39.7,7.7,30.03,NW,315,4.7,10.1,26,0.00,,---,0.00,VWS V14.01,2013-03-28 12:54:00,
2013-03-28 09:00:00,39.7,7.7,30.03,WNW,292,8.1,9.8,26,0.00,,---,0.00,VWS V14.01,2013-03-28 13:00:00,
2013-03-28 09:05:00,40.1,8.0,30.03,WNW,292,4.3,11.0,26,0.00,,---,0.00,VWS V14.01,2013-03-28 13:05:00,
2013-03-28 09:10:00,40.8,5.9,30.03,West,270,3.4,4.7,23,0.00,,---,0.00,VWS V14.01,2013-03-28 13:10:00,
2013-03-28 09:15:00,40.6,5.8,30.03,WNW,292,12.3,12.5,23,0.00,,---,0.00,VWS V14.01,2013-03-28 13:15:00,
2013-03-28 09:20:00,40.6,5.8,30.03,WNW,292,6.3,7.8,23,0.00,,---,0.00,VWS V14.01,2013-03-28 13:20:00,
2013-03-28 09:25:00,41.0,6.1,30.03,WNW,292,4.9,11.0,23,0.00,,---,0.00,VWS V14.01,2013-03-28 13:25:00,
2013-03-28 09:30:00,41.5,6.5,30.03,NNW,338,7.8,9.8,23,0.00,,---,0.00,VWS V14.01,2013-03-28 13:30:00,
2013-03-28 09:35:00,41.4,6.4,30.03,NW,315,13.2,13.2,23,0.00,,---,0.00,VWS V14.01,2013-03-28 13:35:00,
2013-03-28 09:40:00,41.5,6.5,30.03,NW,315,6.3,13.2,23,0.00,,---,0.00,VWS V14.01,2013-03-28 13:40:00,
2013-03-28 09:45:00,41.7,6.7,30.03,NW,315,13.2,13.2,23,0.00,,---,0.00,VWS V14.01,2013-03-28 13:45:00,
2013-03-28 09:50:00,42.3,7.1,30.03,NNW,338,6.3,9.6,23,0.00,,---,0.00,VWS V14.01,2013-03-28 13:50:00,
2013-03-28 09:55:00,42.4,7.3,30.03,NW,315,15.2,17.2,23,0.00,,---,0.00,VWS V14.01,2013-03-28 13:55:00,
2013-03-28 10:00:00,42.8,7.6,30.03,WNW,292,12.3,12.3,23,0.00,,---,0.00,VWS V14.01,2013-03-28 14:00:00,
2013-03-28 10:05:00,43.2,7.9,30.03,NW,315,10.3,15.9,23,0.00,,---,0.00,VWS V14.01,2013-03-28 14:05:00,
2013-03-28 10:10:00,44.2,8.8,30.03,WNW,292,8.7,8.7,23,0.00,,---,0.00,VWS V14.01,2013-03-28 14:10:00,
2013-03-28 10:16:00,43.0,7.7,30.03,WNW,292,6.3,13.2,23,0.00,,---,0.00,VWS V14.01,2013-03-28 14:16:00,
2013-03-28 10:20:00,43.2,7.9,30.03,NW,315,5.6,13.2,23,0.00,,---,0.00,VWS V14.01,2013-03-28 14:20:00,
2013-03-28 10:21:00,43.2,7.9,30.03,West,270,3.8,12.1,23,0.00,,---,0.00,VWS V14.01,2013-03-28 14:21:00,
2013-03-28 10:26:00,43.3,8.0,30.03,WNW,292,2.2,12.1,23,0.00,,---,0.00,VWS V14.01,2013-03-28 14:26:00,
2013-03-28 10:30:00,43.3,5.0,30.03,NNW,338,12.8,12.8,20,0.00,,---,0.00,VWS V14.01,2013-03-28 14:30:00,
2013-03-28 10:32:00,43.0,4.7,30.03,NNW,338,3.6,12.8,20,0.00,,---,0.00,VWS V14.01,2013-03-28 14:32:00,
2013-03-28 10:37:00,43.3,5.0,30.03,NW,315,6.0,12.8,20,0.00,,---,0.00,VWS V14.01,2013-03-28 14:37:00,
2013-03-28 10:40:00,43.5,5.1,30.03,WNW,292,3.6,12.8,20,0.00,,---,0.00,VWS V14.01,2013-03-28 14:40:00,
2013-03-28 10:42:00,44.2,8.8,30.03,West,270,4.0,8.5,23,0.00,,---,0.00,VWS V14.01,2013-03-28 14:42:00,
2013-03-28 10:47:00,44.1,5.6,30.03,West,270,2.9,8.5,20,0.00,,---,0.00,VWS V14.01,2013-03-28 14:47:00,
2013-03-28 10:50:00,44.1,5.6,30.03,NW,315,10.7,10.7,20,0.00,,---,0.00,VWS V14.01,2013-03-28 14:50:00,
2013-03-28 10:52:00,44.2,5.7,30.03,NW,315,4.9,10.7,20,0.00,,---,0.00,VWS V14.01,2013-03-28 14:52:00,
2013-03-28 10:57:00,44.1,5.6,30.03,WNW,292,6.0,12.3,20,0.00,,---,0.00,VWS V14.01,2013-03-28 14:57:00,
2013-03-28 11:00:00,44.1,5.6,30.03,NNW,338,2.7,12.3,20,0.00,,---,0.00,VWS V14.01,2013-03-28 15:00:00,
2013-03-28 11:02:00,43.5,5.1,30.03,NW,315,4.9,12.3,20,0.00,,---,0.00,VWS V14.01,2013-03-28 15:02:00,
2013-03-28 11:07:00,44.6,6.0,30.03,North,0,6.5,12.3,20,0.00,,---,0.00,VWS V14.01,2013-03-28 15:07:00,
2013-03-28 11:10:00,44.6,6.0,30.03,NNW,338,7.6,12.3,20,0.00,,---,0.00,VWS V14.01,2013-03-28 15:10:00,
2013-03-28 11:12:00,44.4,5.9,30.03,NW,315,10.1,15.2,20,0.00,,---,0.00,VWS V14.01,2013-03-28 15:12:00,
2013-03-28 11:17:00,44.2,5.7,30.03,NW,315,11.9,15.2,20,0.00,,---,0.00,VWS V14.01,2013-03-28 15:17:00,
2013-03-28 11:20:00,44.2,5.7,30.03,NNW,338,5.4,15.2,20,0.00,,---,0.00,VWS V14.01,2013-03-28 15:20:00,
2013-03-28 11:22:00,45.1,6.5,30.03,NNW,338,6.3,9.8,20,0.00,,---,0.00,VWS V14.01,2013-03-28 15:22:00,
2013-03-28 11:27:00,45.3,6.6,30.03,North,0,4.9,9.8,20,0.00,,---,0.00,VWS V14.01,2013-03-28 15:27:00,
2013-03-28 11:30:00,45.3,6.6,30.03,NE,45,5.4,9.8,20,0.00,,---,0.00,VWS V14.01,2013-03-28 15:30:00,
2013-03-28 11:32:00,44.6,6.0,30.06,NNW,338,6.0,13.2,20,0.00,,---,0.00,VWS V14.01,2013-03-28 15:32:00,
2013-03-28 11:37:00,45.1,6.5,30.06,NW,315,7.6,13.2,20,0.00,,---,0.00,VWS V14.01,2013-03-28 15:37:00,
2013-03-28 11:40:00,45.1,6.5,30.06,West,270,8.7,13.2,20,0.00,,---,0.00,VWS V14.01,2013-03-28 15:40:00,
2013-03-28 11:43:00,44.6,6.0,30.06,North,0,8.7,17.7,20,0.00,,---,0.00,VWS V14.01,2013-03-28 15:43:00,
2013-03-28 11:48:00,44.6,6.0,30.03,NNW,338,7.2,17.7,20,0.00,,---,0.00,VWS V14.01,2013-03-28 15:48:00,
2013-03-28 11:50:00,44.6,6.0,30.03,NNW,338,7.2,17.7,20,0.00,,---,0.00,VWS V14.01,2013-03-28 15:50:00,
2013-03-28 11:53:00,44.6,6.0,30.03,North,0,13.2,13.2,20,0.00,,---,0.00,VWS V14.01,2013-03-28 15:53:00,
2013-03-28 11:58:00,44.8,6.2,30.03,NNW,338,7.4,13.2,20,0.00,,---,0.00,VWS V14.01,2013-03-28 15:58:00,
2013-03-28 12:00:00,44.8,6.2,30.03,NNW,338,7.4,13.2,20,0.00,,---,0.00,VWS V14.01,2013-03-28 16:00:00,
2013-03-28 12:03:00,45.3,6.6,30.03,NNW,338,5.6,9.6,20,0.00,,---,0.00,VWS V14.01,2013-03-28 16:03:00,
2013-03-28 12:08:00,44.6,6.0,30.03,North,0,10.1,15.2,20,0.00,,---,0.00,VWS V14.01,2013-03-28 16:08:00,
2013-03-28 12:10:00,44.6,6.0,30.03,North,0,10.1,15.2,20,0.00,,---,0.00,VWS V14.01,2013-03-28 16:10:00,
2013-03-28 12:13:00,44.6,6.0,30.03,NNE,22,7.6,13.2,20,0.00,,---,0.00,VWS V14.01,2013-03-28 16:13:00,
2013-03-28 12:18:00,44.8,6.2,30.03,NW,315,3.6,4.3,20,0.00,,---,0.00,VWS V14.01,2013-03-28 16:18:00,
2013-03-28 12:20:00,44.8,6.2,30.03,NNW,338,4.3,13.2,20,0.00,,---,0.00,VWS V14.01,2013-03-28 16:20:00,
2013-03-28 12:23:00,44.8,6.2,30.03,North,0,6.5,6.5,20,0.00,,---,0.00,VWS V14.01,2013-03-28 16:23:00,
2013-03-28 12:28:00,45.1,6.5,30.03,NW,315,6.5,6.5,20,0.00,,---,0.00,VWS V14.01,2013-03-28 16:28:00,
2013-03-28 12:30:00,45.1,6.5,30.03,WNW,292,5.8,7.6,20,0.00,,---,0.00,VWS V14.01,2013-03-28 16:30:00,
2013-03-28 12:33:00,45.5,6.8,30.03,WNW,292,3.8,8.7,20,0.00,,---,0.00,VWS V14.01,2013-03-28 16:33:00,
2013-03-28 12:38:00,46.4,6.4,30.03,NW,315,4.3,8.7,19,0.00,,---,0.00,VWS V14.01,2013-03-28 16:38:00,
2013-03-28 12:40:00,46.4,6.4,30.03,NW,315,8.7,10.3,19,0.00,,---,0.00,VWS V14.01,2013-03-28 16:40:00,
2013-03-28 12:44:00,45.7,6.9,30.03,NNW,338,2.5,9.6,20,0.00,,---,0.00,VWS V14.01,2013-03-28 16:44:00,
2013-03-28 12:49:00,45.9,7.1,30.03,North,0,3.4,8.5,20,0.00,,---,0.00,VWS V14.01,2013-03-28 16:49:00,
2013-03-28 12:50:00,45.9,7.1,30.03,NW,315,3.4,9.6,20,0.00,,---,0.00,VWS V14.01,2013-03-28 16:50:00,
2013-03-28 12:54:00,44.8,6.2,30.03,NE,45,12.3,14.3,20,0.00,,---,0.00,VWS V14.01,2013-03-28 16:54:00,
2013-03-28 12:59:00,44.8,6.2,30.03,NNW,338,4.9,4.9,20,0.00,,---,0.00,VWS V14.01,2013-03-28 16:59:00,
2013-03-28 13:00:00,44.8,6.2,30.03,NNW,338,3.4,14.3,20,0.00,,---,0.00,VWS V14.01,2013-03-28 17:00:00,
2013-03-28 13:04:00,45.3,6.6,30.03,SSW,202,5.6,9.6,20,0.00,,---,0.00,VWS V14.01,2013-03-28 17:04:00,
2013-03-28 13:09:00,45.7,6.9,30.03,WNW,292,9.8,10.5,20,0.00,,---,0.00,VWS V14.01,2013-03-28 17:09:00,
2013-03-28 13:10:00,45.9,7.1,30.03,West,270,7.4,9.6,20,0.00,,---,0.00,VWS V14.01,2013-03-28 17:10:00,
2013-03-28 13:13:00,45.9,7.1,30.03,NW,315,9.8,9.8,20,0.00,,---,0.00,VWS V14.01,2013-03-28 17:13:00,
2013-03-28 13:14:00,45.5,6.8,30.03,North,0,6.5,9.8,20,0.00,,---,0.00,VWS V14.01,2013-03-28 17:14:00,
2013-03-28 13:19:00,45.9,7.1,30.03,NW,315,5.8,6.5,20,0.00,,---,0.00,VWS V14.01,2013-03-28 17:19:00,
2013-03-28 13:20:00,45.3,6.6,30.03,NNE,22,6.5,9.8,20,0.00,,---,0.00,VWS V14.01,2013-03-28 17:20:00,
2013-03-28 13:24:00,46.2,7.4,30.03,West,270,4.7,8.1,20,0.00,,---,0.00,VWS V14.01,2013-03-28 17:24:00,
2013-03-28 13:29:00,46.6,6.5,30.03,NW,315,10.5,10.5,19,0.00,,---,0.00,VWS V14.01,2013-03-28 17:29:00,
2013-03-28 13:30:00,46.2,7.4,30.03,NNW,338,2.0,8.1,20,0.00,,---,0.00,VWS V14.01,2013-03-28 17:30:00,
2013-03-28 13:35:00,46.6,6.5,30.03,NNW,338,12.5,12.5,19,0.00,,---,0.00,VWS V14.01,2013-03-28 17:35:00,
2013-03-28 13:40:00,46.4,6.4,30.03,NNW,338,6.5,6.5,19,0.00,,---,0.00,VWS V14.01,2013-03-28 17:40:00,
2013-03-28 13:45:00,46.6,6.5,30.03,NNE,22,10.7,10.7,19,0.00,,---,0.00,VWS V14.01,2013-03-28 17:45:00,
2013-03-28 13:50:00,47.3,7.1,30.03,North,0,12.8,12.8,19,0.00,,---,0.00,VWS V14.01,2013-03-28 17:50:00,
2013-03-28 13:55:00,47.3,7.1,30.03,NNW,338,4.9,12.8,19,0.00,,---,0.00,VWS V14.01,2013-03-28 17:55:00,
2013-03-28 14:00:00,47.1,7.0,30.03,NW,315,6.7,6.7,19,0.00,,---,0.00,VWS V14.01,2013-03-28 18:00:00,
2013-03-28 14:05:00,46.8,6.7,30.03,North,0,10.3,12.5,19,0.00,,---,0.00,VWS V14.01,2013-03-28 18:05:00,
2013-03-28 14:10:00,46.9,6.8,30.03,NW,315,7.8,11.4,19,0.00,,---,0.00,VWS V14.01,2013-03-28 18:10:00,
2013-03-28 14:16:00,46.8,6.7,30.03,West,270,10.5,14.5,19,0.00,,---,0.00,VWS V14.01,2013-03-28 18:16:00,
2013-03-28 14:20:00,46.8,6.7,30.03,North,0,3.4,14.5,19,0.00,,---,0.00,VWS V14.01,2013-03-28 18:20:00,
2013-03-28 14:21:00,46.9,6.8,30.03,North,0,5.6,8.7,19,0.00,,---,0.00,VWS V14.01,2013-03-28 18:21:00,
2013-03-28 14:26:00,46.9,6.8,30.03,NNW,338,6.7,10.3,19,0.00,,---,0.00,VWS V14.01,2013-03-28 18:26:00,
2013-03-28 14:30:00,46.9,6.8,30.03,North,0,6.0,10.3,19,0.00,,---,0.00,VWS V14.01,2013-03-28 18:30:00,
2013-03-28 14:31:00,46.9,6.8,30.03,NW,315,9.8,9.8,19,0.00,,---,0.00,VWS V14.01,2013-03-28 18:31:00,
2013-03-28 14:36:00,46.8,6.7,30.03,NW,315,13.2,15.4,19,0.00,,---,0.00,VWS V14.01,2013-03-28 18:36:00,
2013-03-28 14:40:00,46.8,6.7,30.03,North,0,4.0,15.4,19,0.00,,---,0.00,VWS V14.01,2013-03-28 18:40:00,
2013-03-28 14:41:00,46.9,6.8,30.03,NNW,338,6.5,10.5,19,0.00,,---,0.00,VWS V14.01,2013-03-28 18:41:00,
2013-03-28 14:46:00,46.6,6.5,30.03,North,0,5.6,12.3,19,0.00,,---,0.00,VWS V14.01,2013-03-28 18:46:00,
2013-03-28 14:50:00,46.2,7.4,30.03,NNW,338,8.1,17.7,20,0.00,,---,0.00,VWS V14.01,2013-03-28 18:50:00,
2013-03-28 14:51:00,46.4,6.4,30.03,NNE,22,2.5,9.6,19,0.00,,---,0.00,VWS V14.01,2013-03-28 18:51:00,
2013-03-28 14:56:00,46.4,6.4,30.03,NW,315,3.4,14.1,19,0.00,,---,0.00,VWS V14.01,2013-03-28 18:56:00,
2013-03-28 15:00:00,46.6,6.5,30.03,NW,315,3.6,14.1,19,0.00,,---,0.00,VWS V14.01,2013-03-28 19:00:00,
2013-03-28 15:02:00,46.4,6.4,30.03,WNW,292,7.8,13.2,19,0.00,,---,0.00,VWS V14.01,2013-03-28 19:02:00,
2013-03-28 15:07:00,46.2,7.4,30.03,North,0,10.7,13.2,20,0.00,,---,0.00,VWS V14.01,2013-03-28 19:07:00,
2013-03-28 15:10:00,46.4,6.4,30.03,NNE,22,2.9,13.2,19,0.00,,---,0.00,VWS V14.01,2013-03-28 19:10:00,
2013-03-28 15:12:00,46.4,6.4,30.03,NW,315,8.5,12.3,19,0.00,,---,0.00,VWS V14.01,2013-03-28 19:12:00,
2013-03-28 15:17:00,46.2,7.4,30.03,NW,315,9.8,12.3,20,0.00,,---,0.00,VWS V14.01,2013-03-28 19:17:00,
2013-03-28 15:20:00,46.2,7.4,30.03,NW,315,6.5,12.3,20,0.00,,---,0.00,VWS V14.01,2013-03-28 19:20:00,
2013-03-28 15:22:00,46.4,6.4,30.03,North,0,10.5,14.8,19,0.00,,---,0.00,VWS V14.01,2013-03-28 19:22:00,
2013-03-28 15:27:00,46.8,6.7,30.03,NNE,22,9.8,14.8,19,0.00,,---,0.00,VWS V14.01,2013-03-28 19:27:00,
2013-03-28 15:30:00,46.6,6.5,30.03,NNE,22,5.4,14.8,19,0.00,,---,0.00,VWS V14.01,2013-03-28 19:30:00,
2013-03-28 15:32:00,46.8,6.7,30.03,North,0,8.7,8.7,19,0.00,,---,0.00,VWS V14.01,2013-03-28 19:32:00,
2013-03-28 15:37:00,47.1,7.0,30.03,NW,315,6.3,11.9,19,0.00,,---,0.00,VWS V14.01,2013-03-28 19:37:00,
2013-03-28 15:40:00,47.1,7.0,30.03,WNW,292,2.7,11.9,19,0.00,,---,0.00,VWS V14.01,2013-03-28 19:40:00,
2013-03-28 15:42:00,47.3,7.1,30.03,NNE,22,7.8,10.1,19,0.00,,---,0.00,VWS V14.01,2013-03-28 19:42:00,
2013-03-28 15:47:00,47.1,7.0,30.03,West,270,7.6,12.3,19,0.00,,---,0.00,VWS V14.01,2013-03-28 19:47:00,
2013-03-28 15:50:00,47.1,7.0,30.03,NNW,338,9.6,12.3,19,0.00,,---,0.00,VWS V14.01,2013-03-28 19:50:00,
2013-03-28 15:53:00,47.1,7.0,30.03,North,0,4.9,13.4,19,0.00,,---,0.00,VWS V14.01,2013-03-28 19:53:00,
2013-03-28 15:57:00,47.1,7.0,30.03,NNW,338,5.4,13.4,19,0.00,,---,0.00,VWS V14.01,2013-03-28 19:57:00,
2013-03-28 16:00:00,47.1,7.0,30.03,NNW,338,8.5,13.4,19,0.00,,---,0.00,VWS V14.01,2013-03-28 20:00:00,
2013-03-28 16:03:00,47.5,7.3,30.03,NNW,338,7.6,8.5,19,0.00,,---,0.00,VWS V14.01,2013-03-28 20:03:00,
2013-03-28 16:08:00,47.3,7.1,30.03,NNW,338,9.8,9.8,19,0.00,,---,0.00,VWS V14.01,2013-03-28 20:08:00,
2013-03-28 16:10:00,47.3,7.1,30.03,NNW,338,9.8,9.8,19,0.00,,---,0.00,VWS V14.01,2013-03-28 20:10:00,
2013-03-28 16:13:00,47.3,7.1,30.03,WNW,292,5.8,10.5,19,0.00,,---,0.00,VWS V14.01,2013-03-28 20:13:00,
2013-03-28 16:18:00,47.1,7.0,30.03,NNW,338,9.6,10.7,19,0.00,,---,0.00,VWS V14.01,2013-03-28 20:18:00,
2013-03-28 16:20:00,47.1,7.0,30.03,WNW,292,10.7,15.4,19,0.00,,---,0.00,VWS V14.01,2013-03-28 20:20:00,
2013-03-28 16:23:00,47.3,7.1,30.03,NW,315,5.8,12.5,19,0.00,,---,0.00,VWS V14.01,2013-03-28 20:23:00,
2013-03-28 16:28:00,46.9,6.8,30.03,North,0,8.7,8.7,19,0.00,,---,0.00,VWS V14.01,2013-03-28 20:28:00,
2013-03-28 16:30:00,47.1,7.0,30.03,NW,315,7.8,12.5,19,0.00,,---,0.00,VWS V14.01,2013-03-28 20:30:00,
2013-03-28 16:33:00,46.8,6.7,30.03,NW,315,8.1,11.0,19,0.00,,---,0.00,VWS V14.01,2013-03-28 20:33:00,
2013-03-28 16:38:00,46.8,6.7,30.03,NNE,22,5.4,10.5,19,0.00,,---,0.00,VWS V14.01,2013-03-28 20:38:00,
2013-03-28 16:40:00,46.8,6.7,30.03,North,0,10.5,13.4,19,0.00,,---,0.00,VWS V14.01,2013-03-28 20:40:00,
2013-03-28 16:43:00,46.8,6.7,30.03,NNE,22,6.5,11.0,19,0.00,,---,0.00,VWS V14.01,2013-03-28 20:43:00,
2013-03-28 16:48:00,47.1,7.0,30.03,North,0,6.3,9.8,19,0.00,,---,0.00,VWS V14.01,2013-03-28 20:48:00,
2013-03-28 16:50:00,47.1,7.0,30.03,North,0,6.3,11.0,19,0.00,,---,0.00,VWS V14.01,2013-03-28 20:50:00,
2013-03-28 16:53:00,47.1,7.0,30.03,NW,315,6.0,9.8,19,0.00,,---,0.00,VWS V14.01,2013-03-28 20:53:00,
2013-03-28 16:58:00,47.3,7.1,30.03,West,270,5.4,6.5,19,0.00,,---,0.00,VWS V14.01,2013-03-28 20:58:00,
2013-03-28 17:00:00,47.1,7.0,30.03,ESE,112,6.5,10.5,19,0.00,,---,0.00,VWS V14.01,2013-03-28 21:00:00,
2013-03-28 17:04:00,46.9,6.8,30.00,NNW,338,5.8,12.3,19,0.00,,---,0.00,VWS V14.01,2013-03-28 21:04:00,
2013-03-28 17:09:00,46.9,6.8,30.00,NW,315,4.9,6.7,19,0.00,,---,0.00,VWS V14.01,2013-03-28 21:09:00,
2013-03-28 17:10:00,46.9,6.8,30.00,WNW,292,5.8,12.3,19,0.00,,---,0.00,VWS V14.01,2013-03-28 21:10:00,
2013-03-28 17:14:00,46.8,6.7,30.00,NW,315,6.3,13.4,19,0.00,,---,0.00,VWS V14.01,2013-03-28 21:14:00,
2013-03-28 17:19:00,46.8,6.7,30.00,NW,315,4.0,12.1,19,0.00,,---,0.00,VWS V14.01,2013-03-28 21:19:00,
2013-03-28 17:20:00,46.8,6.7,30.00,North,0,7.4,13.4,19,0.00,,---,0.00,VWS V14.01,2013-03-28 21:20:00,
2013-03-28 17:24:00,46.8,6.7,30.00,NNW,338,10.3,12.1,19,0.00,,---,0.00,VWS V14.01,2013-03-28 21:24:00,
2013-03-28 17:29:00,46.8,6.7,30.00,North,0,4.9,6.3,19,0.00,,---,0.00,VWS V14.01,2013-03-28 21:29:00,
2013-03-28 17:30:00,46.8,6.7,30.00,NW,315,4.0,12.1,19,0.00,,---,0.00,VWS V14.01,2013-03-28 21:30:00,
2013-03-28 17:34:00,46.8,6.7,30.03,NW,315,3.8,9.8,19,0.00,,---,0.00,VWS V14.01,2013-03-28 21:34:00,
2013-03-28 17:39:00,46.9,6.8,30.03,NNW,338,5.8,6.0,19,0.00,,---,0.00,VWS V14.01,2013-03-28 21:39:00,
2013-03-28 17:40:00,46.9,6.8,30.03,NW,315,6.0,9.8,19,0.00,,---,0.00,VWS V14.01,2013-03-28 21:40:00,
2013-03-28 17:45:00,47.3,7.1,30.03,NW,315,5.4,8.7,19,0.00,,---,0.00,VWS V14.01,2013-03-28 21:45:00,
2013-03-28 17:50:00,47.3,7.1,30.03,NNW,338,5.8,5.8,19,0.00,,---,0.00,VWS V14.01,2013-03-28 21:50:00,
2013-03-28 17:55:00,47.3,7.1,30.03,NW,315,7.8,10.3,19,0.00,,---,0.00,VWS V14.01,2013-03-28 21:55:00,
2013-03-28 18:00:00,47.1,7.0,30.03,NW,315,7.6,8.5,19,0.00,,---,0.00,VWS V14.01,2013-03-28 22:00:00,
2013-03-28 18:05:00,47.1,7.0,30.03,WNW,292,15.2,15.2,19,0.00,,---,0.00,VWS V14.01,2013-03-28 22:05:00,
2013-03-28 18:10:00,47.1,7.0,30.03,NW,315,4.3,6.5,19,0.00,,---,0.00,VWS V14.01,2013-03-28 22:10:00,
2013-03-28 18:15:00,47.1,7.0,30.03,NNW,338,3.6,6.5,19,0.00,,---,0.00,VWS V14.01,2013-03-28 22:15:00,
2013-03-28 18:20:00,46.9,6.8,30.03,NW,315,3.4,9.8,19,0.00,,---,0.00,VWS V14.01,2013-03-28 22:20:00,
2013-03-28 18:25:00,46.9,6.8,30.03,NNW,338,3.4,9.8,19,0.00,,---,0.00,VWS V14.01,2013-03-28 22:25:00,
2013-03-28 18:30:00,46.9,6.8,30.03,NNW,338,5.4,10.3,19,0.00,,---,0.00,VWS V14.01,2013-03-28 22:30:00,
2013-03-28 18:35:00,46.8,6.7,30.03,NW,315,11.0,11.0,19,0.00,,---,0.00,VWS V14.01,2013-03-28 22:35:00,
2013-03-28 18:40:00,46.8,6.7,30.03,NW,315,3.1,11.0,19,0.00,,---,0.00,VWS V14.01,2013-03-28 22:40:00,
2013-03-28 18:41:00,46.8,6.7,30.03,NW,315,5.6,6.0,19,0.00,,---,0.00,VWS V14.01,2013-03-28 22:41:00,
2013-03-28 18:46:00,46.8,6.7,30.03,WNW,292,6.9,8.7,19,0.00,,---,0.00,VWS V14.01,2013-03-28 22:46:00,
2013-03-28 18:50:00,46.8,6.7,30.06,North,0,2.0,8.7,19,0.00,,---,0.00,VWS V14.01,2013-03-28 22:50:00,
2013-03-28 18:51:00,46.8,6.7,30.06,NNW,338,6.3,6.3,19,0.00,,---,0.00,VWS V14.01,2013-03-28 22:51:00,
2013-03-28 18:56:00,46.8,6.7,30.06,NW,315,6.3,6.3,19,0.00,,---,0.00,VWS V14.01,2013-03-28 22:56:00,
2013-03-28 19:00:00,46.8,6.7,30.06,NW,315,2.9,6.3,19,0.00,,---,0.00,VWS V14.01,2013-03-28 23:00:00,
2013-03-28 19:02:00,46.8,6.7,30.06,WNW,292,3.6,5.4,19,0.00,,---,0.00,VWS V14.01,2013-03-28 23:02:00,
2013-03-28 19:07:00,46.8,6.7,30.06,NW,315,4.3,10.3,19,0.00,,---,0.00,VWS V14.01,2013-03-28 23:07:00,
2013-03-28 19:10:00,46.8,6.7,30.06,NW,315,3.6,10.3,19,0.00,,---,0.00,VWS V14.01,2013-03-28 23:10:00,
2013-03-28 19:12:00,46.6,6.5,30.06,NW,315,4.0,5.8,19,0.00,,---,0.00,VWS V14.01,2013-03-28 23:12:00,
2013-03-28 19:17:00,46.4,6.4,30.06,West,270,3.8,10.3,19,0.00,,---,0.00,VWS V14.01,2013-03-28 23:17:00,
2013-03-28 19:20:00,46.4,6.4,30.06,NW,315,9.6,10.3,19,0.00,,---,0.00,VWS V14.01,2013-03-28 23:20:00,
2013-03-28 19:22:00,46.2,7.4,30.06,West,270,6.0,9.6,20,0.00,,---,0.00,VWS V14.01,2013-03-28 23:22:00,
2013-03-28 19:27:00,46.0,7.2,30.06,NW,315,4.3,10.1,20,0.00,,---,0.00,VWS V14.01,2013-03-28 23:27:00,
2013-03-28 19:30:00,46.0,7.2,30.06,WNW,292,5.4,10.1,20,0.00,,---,0.00,VWS V14.01,2013-03-28 23:30:00,
2013-03-28 19:32:00,45.9,7.1,30.09,NW,315,5.6,6.5,20,0.00,,---,0.00,VWS V14.01,2013-03-28 23:32:00,
2013-03-28 19:37:00,45.7,6.9,30.09,NW,315,9.6,9.6,20,0.00,,---,0.00,VWS V14.01,2013-03-28 23:37:00,
2013-03-28 19:40:00,45.7,6.9,30.09,West,270,10.7,10.7,20,0.00,,---,0.00,VWS V14.01,2013-03-28 23:40:00,
2013-03-28 19:42:00,45.5,6.8,30.09,NNW,338,5.4,11.4,20,0.00,,---,0.00,VWS V14.01,2013-03-28 23:42:00,
2013-03-28 19:47:00,45.5,6.8,30.09,NW,315,4.9,11.4,20,0.00,,---,0.00,VWS V14.01,2013-03-28 23:47:00,
2013-03-28 19:50:00,45.5,6.8,30.09,NW,315,3.6,11.4,20,0.00,,---,0.00,VWS V14.01,2013-03-28 23:50:00,
2013-03-28 19:52:00,45.3,6.6,30.09,WNW,292,4.7,8.5,20,0.00,,---,0.00,VWS V14.01,2013-03-28 23:52:00,
2013-03-28 19:57:00,45.3,6.6,30.09,NW,315,6.5,9.8,20,0.00,,---,0.00,VWS V14.01,2013-03-28 23:57:00,
2013-03-28 20:00:00,45.3,6.6,30.09,WNW,292,5.4,9.8,20,0.00,,---,0.00,VWS V14.01,2013-03-29 00:00:00,
2013-03-28 20:03:00,45.3,6.6,30.09,WNW,292,5.6,8.7,20,0.00,,---,0.00,VWS V14.01,2013-03-29 00:03:00,
2013-03-28 20:08:00,45.1,6.5,30.09,NW,315,8.7,9.4,20,0.00,,---,0.00,VWS V14.01,2013-03-29 00:08:00,
2013-03-28 20:10:00,45.1,6.5,30.09,NW,315,8.7,9.4,20,0.00,,---,0.00,VWS V14.01,2013-03-29 00:10:00,
2013-03-28 20:13:00,45.1,6.5,30.09,SW,225,7.2,8.7,20,0.00,,---,0.00,VWS V14.01,2013-03-29 00:13:00,
2013-03-28 20:18:00,45.1,6.5,30.09,West,270,3.8,4.7,20,0.00,,---,0.00,VWS V14.01,2013-03-29 00:18:00,
2013-03-28 20:20:00,45.1,6.5,30.09,WNW,292,4.7,9.6,20,0.00,,---,0.00,VWS V14.01,2013-03-29 00:20:00,
2013-03-28 20:23:00,45.0,6.3,30.09,NW,315,3.8,8.1,20,0.00,,---,0.00,VWS V14.01,2013-03-29 00:23:00,
2013-03-28 20:28:00,45.0,6.3,30.09,WNW,292,5.8,7.6,20,0.00,,---,0.00,VWS V14.01,2013-03-29 00:28:00,
2013-03-28 20:30:00,45.0,6.3,30.09,NW,315,7.6,8.7,20,0.00,,---,0.00,VWS V14.01,2013-03-29 00:30:00,
2013-03-28 20:33:00,45.0,6.3,30.06,NW,315,5.4,8.7,20,0.00,,---,0.00,VWS V14.01,2013-03-29 00:33:00,
2013-03-28 20:38:00,45.0,6.3,30.06,WNW,292,4.3,5.8,20,0.00,,---,0.00,VWS V14.01,2013-03-29 00:38:00,
2013-03-28 20:40:00,45.0,6.3,30.06,NW,315,5.8,9.8,20,0.00,,---,0.00,VWS V14.01,2013-03-29 00:40:00,
2013-03-28 20:43:00,44.8,6.2,30.06,WNW,292,6.5,8.5,20,0.00,,---,0.00,VWS V14.01,2013-03-29 00:43:00,
2013-03-28 20:48:00,44.8,6.2,30.06,West,270,5.8,5.8,20,0.00,,---,0.00,VWS V14.01,2013-03-29 00:48:00,
2013-03-28 20:50:00,44.8,6.2,30.06,WNW,292,2.5,11.9,20,0.00,,---,0.00,VWS V14.01,2013-03-29 00:50:00,
2013-03-28 20:54:00,44.8,6.2,30.06,NNW,338,4.9,8.1,20,0.00,,---,0.00,VWS V14.01,2013-03-29 00:54:00,
2013-03-28 20:59:00,44.8,6.2,30.06,NW,315,6.3,7.6,20,0.00,,---,0.00,VWS V14.01,2013-03-29 00:59:00,
2013-03-28 21:00:00,44.8,6.2,30.06,WNW,292,7.6,8.1,20,0.00,,---,0.00,VWS V14.01,2013-03-29 01:00:00,
2013-03-28 21:04:00,44.8,6.2,30.09,NW,315,4.0,7.8,20,0.00,,---,0.00,VWS V14.01,2013-03-29 01:04:00,
2013-03-28 21:09:00,44.8,6.2,30.09,WNW,292,5.6,9.6,20,0.00,,---,0.00,VWS V14.01,2013-03-29 01:09:00,
2013-03-28 21:10:00,44.8,6.2,30.09,NW,315,4.0,8.7,20,0.00,,---,0.00,VWS V14.01,2013-03-29 01:10:00,
2013-03-28 21:14:00,44.8,6.2,30.09,WNW,292,4.9,12.8,20,0.00,,---,0.00,VWS V14.01,2013-03-29 01:14:00,
2013-03-28 21:19:00,44.8,6.2,30.09,NNW,338,6.5,9.2,20,0.00,,---,0.00,VWS V14.01,2013-03-29 01:19:00,
2013-03-28 21:20:00,44.8,6.2,30.09,West,270,4.7,12.8,20,0.00,,---,0.00,VWS V14.01,2013-03-29 01:20:00,
2013-03-28 21:24:00,44.8,6.2,30.09,NW,315,7.6,10.7,20,0.00,,---,0.00,VWS V14.01,2013-03-29 01:24:00,
2013-03-28 21:29:00,44.8,6.2,30.09,WNW,292,2.9,7.6,20,0.00,,---,0.00,VWS V14.01,2013-03-29 01:29:00,
2013-03-28 21:30:00,44.8,6.2,30.09,NNW,338,5.4,10.7,20,0.00,,---,0.00,VWS V14.01,2013-03-29 01:30:00,
2013-03-28 21:34:00,44.8,6.2,30.09,NW,315,4.9,8.5,20,0.00,,---,0.00,VWS V14.01,2013-03-29 01:34:00,
2013-03-28 21:39:00,44.6,6.0,30.09,NW,315,6.0,6.0,20,0.00,,---,0.00,VWS V14.01,2013-03-29 01:39:00,
2013-03-28 21:40:00,44.8,6.2,30.09,NNW,338,3.8,8.5,20,0.00,,---,0.00,VWS V14.01,2013-03-29 01:40:00,
2013-03-28 21:45:00,44.6,6.0,30.09,NW,315,5.8,11.9,20,0.00,,---,0.00,VWS V14.01,2013-03-29 01:45:00,
2013-03-28 21:50:00,44.6,6.0,30.09,WNW,292,6.0,8.5,20,0.00,,---,0.00,VWS V14.01,2013-03-29 01:50:00,
2013-03-28 21:55:00,44.6,6.0,30.09,NW,315,9.6,9.6,20,0.00,,---,0.00,VWS V14.01,2013-03-29 01:55:00,
2013-03-28 22:00:00,44.6,6.0,30.09,NW,315,6.5,6.5,20,0.00,,---,0.00,VWS V14.01,2013-03-29 02:00:00,
2013-03-28 22:05:00,44.6,6.0,30.12,NW,315,3.8,10.3,20,0.00,,---,0.00,VWS V14.01,2013-03-29 02:05:00,
2013-03-28 22:10:00,44.6,6.0,30.12,NNW,338,5.6,6.5,20,0.00,,---,0.00,VWS V14.01,2013-03-29 02:10:00,
2013-03-28 22:15:00,44.4,5.9,30.12,NW,315,2.7,6.5,20,0.00,,---,0.00,VWS V14.01,2013-03-29 02:15:00,
2013-03-28 22:20:00,44.4,5.9,30.12,West,270,4.9,7.6,20,0.00,,---,0.00,VWS V14.01,2013-03-29 02:20:00,
2013-03-28 22:25:00,44.4,5.9,30.12,NW,315,2.0,7.8,20,0.00,,---,0.00,VWS V14.01,2013-03-29 02:25:00,
2013-03-28 22:30:00,44.4,5.9,30.12,West,270,4.9,10.5,20,0.00,,---,0.00,VWS V14.01,2013-03-29 02:30:00,
2013-03-28 22:35:00,44.4,5.9,30.12,WNW,292,3.1,10.5,20,0.00,,---,0.00,VWS V14.01,2013-03-29 02:35:00,
2013-03-28 22:40:00,44.2,5.7,30.12,NW,315,5.6,6.3,20,0.00,,---,0.00,VWS V14.01,2013-03-29 02:40:00,
2013-03-28 22:45:00,44.2,5.7,30.12,West,270,5.6,7.6,20,0.00,,---,0.00,VWS V14.01,2013-03-29 02:45:00,
2013-03-28 22:50:00,44.2,5.7,30.12,WNW,292,4.9,8.1,20,0.00,,---,0.00,VWS V14.01,2013-03-29 02:50:00,
2013-03-28 22:51:00,44.2,5.7,30.12,NW,315,8.5,8.5,20,0.00,,---,0.00,VWS V14.01,2013-03-29 02:51:00,
2013-03-28 22:56:00,44.2,5.7,30.12,WNW,292,5.8,8.5,20,0.00,,---,0.00,VWS V14.01,2013-03-29 02:56:00,
2013-03-28 23:00:00,44.2,5.7,30.12,North,0,2.7,8.5,20,0.00,,---,0.00,VWS V14.01,2013-03-29 03:00:00,
2013-03-28 23:01:00,44.2,5.7,30.12,WNW,292,7.6,7.6,20,0.00,,---,0.00,VWS V14.01,2013-03-29 03:01:00,
2013-03-28 23:07:00,44.1,5.6,30.12,NW,315,3.6,7.6,20,0.00,,---,0.00,VWS V14.01,2013-03-29 03:07:00,
2013-03-28 23:10:00,44.1,5.6,30.12,WNW,292,6.3,7.6,20,0.00,,---,0.00,VWS V14.01,2013-03-29 03:10:00,
2013-03-28 23:12:00,44.1,5.6,30.12,North,0,2.9,6.3,20,0.00,,---,0.00,VWS V14.01,2013-03-29 03:12:00,
2013-03-28 23:17:00,44.1,5.6,30.12,South,180,2.7,6.3,20,0.00,,---,0.00,VWS V14.01,2013-03-29 03:17:00,
2013-03-28 23:20:00,44.1,5.6,30.12,NW,315,3.6,6.3,20,0.00,,---,0.00,VWS V14.01,2013-03-29 03:20:00,
2013-03-28 23:22:00,44.1,5.6,30.12,NW,315,5.8,6.5,20,0.00,,---,0.00,VWS V14.01,2013-03-29 03:22:00,
2013-03-28 23:27:00,44.1,5.6,30.12,NNW,338,4.9,9.4,20,0.00,,---,0.00,VWS V14.01,2013-03-29 03:27:00,
2013-03-28 23:30:00,44.1,5.6,30.12,NW,315,4.0,9.4,20,0.00,,---,0.00,VWS V14.01,2013-03-29 03:30:00,
2013-03-28 23:32:00,44.1,5.6,30.12,NW,315,2.5,6.5,20,0.00,,---,0.00,VWS V14.01,2013-03-29 03:32:00,
2013-03-28 23:37:00,43.9,5.4,30.12,WNW,292,6.0,6.5,20,0.00,,---,0.00,VWS V14.01,2013-03-29 03:37:00,
2013-03-28 23:40:00,43.9,5.4,30.12,WNW,292,5.6,6.5,20,0.00,,---,0.00,VWS V14.01,2013-03-29 03:40:00,
2013-03-28 23:42:00,43.9,5.4,30.12,NW,315,5.8,7.8,20,0.00,,---,0.00,VWS V14.01,2013-03-29 03:42:00,
2013-03-28 23:47:00,43.9,5.4,30.12,West,270,3.1,7.8,20,0.00,,---,0.00,VWS V14.01,2013-03-29 03:47:00,
2013-03-28 23:50:00,43.9,5.4,30.12,NW,315,1.6,7.8,20,0.00,,---,0.00,VWS V14.01,2013-03-29 03:50:00,
2013-03-28 23:52:00,43.9,5.4,30.12,NNW,338,5.4,6.5,20,0.00,,---,0.00,VWS V14.01,2013-03-29 03:52:00,
2013-03-28 23:57:00,43.9,5.4,30.12,NW,315,3.1,13.0,20,0.00,,---,0.00,VWS V14.01,2013-03-29 03:57:00,